OBJECT AC, 61761

Orbit data source: Space-Track

You're viewing an Uncataloged Satellite

Recently launched and/or uncataloged satellites may have evolving metadata. Metadata may include but not limited to: Owner, Maufacturer, Bus, Motor, and Mission.

OBJECT AC, 61761 is a satellite in SSO that was launched on Mon, 04 Nov 2024 UTC via a SOYUZ-2-1B launch vehicle from the Vostochny Cosmodrome (VOSTO). Unknown objects in Earth's orbit typically refer to objects detected orbiting the Earth but have not yet been identified or cataloged. These objects could be anything from previously untracked satellites, spent rocket stages, debris from satellite collisions, or even natural meteoroids temporarily captured by Earth's gravity.

Loading next visibility...
Identifier
61761, 2024-199AC
Orbit
SSO
Country
Flag of TBDTBD
Related business
None
Manufacturer
Unknown
Mission
Operational Commercial Technology
Bus & Motor
Unknown
Mass
Unknown
Launch date (UTC)
2024-11-04 (1 year ago)
Launch vehicle
SOYUZ-2-1B
Launch site
Vostochny Cosmodrome (VOSTO)
Object type
Unknown
Shape & HBR
Box, 0.1 m
Radar Cross Section
0.035 m², Small (<0.1 m²)

Expand to show TLE details & history
Last TLE update: 9 hours ago

TLE from 9 hours ago
0 OBJECT AC
1 61761U 24199AC  25312.84785370  .00039067  00000-0  94148-3 0  9995
2 61761  97.3246 181.5927 0008873  16.9127 343.2414 15.41103399103505
Epoch: 2025-11-08T20:20Z
TLE epoch observation values (Epoch: 2025-11-08T20:20:54.559Z)
Latitude
-0.00002°
Longitude
-171.90621°
Altitude
440.177 km
Speed
7.651 km/s
True Right ascension
12h 06m 22s
True Declination
0° 00' 00"
Sunlit
Object was in daylight at epoch
Visualization orbit readout
Latitude
Unknown
Longitude
Unknown
Altitude
Unknown
Speed
Unknown
Apparent Right ascension
Unknown
Apparent Declination
Unknown
Sunlit
N/A
Visualization observer readout
Local Sidereal Time
02:01:37
Azimuth
Unknown
Elevation
Unknown
Doppler factor
Unknown
Orbital elements
Apogee altitude
445.835 km
Perigee altitude
433.736 km
Semi-major axis
6,817.923 km
Eccentricity
0.00089
Inclination
97.3246°
RAAN
181.5927°
Arg. of periapsis
16.9127°
True anomaly
343.21205°
Mean anomaly
343.2414°
Eccentric anomaly
343.22673°
Mean motion
3.85536 °/min
Orbital period
93.38 mins
BSTAR
0.00094148
Loading maneuver chart data...
Computing Atmospheric mass density...
Loading historical data...
Loading historical data...
Loading historical data...
Loading historical data...
Loading historical data...
Loading historical data...
Loading historical data...

Documentation

Showing up to 5 results
|